Time,TemperatureF,DewpointF,PressureIn,WindDirection,WindDirectionDegrees,WindSpeedMPH,WindSpeedGustMPH,Humidity,HourlyPrecipIn,Conditions,Clouds,dailyrainin,SoftwareType,DateUTC
2015-08-28 00:04:00,68.9,55.8,29.94,West,271,0.0,0.0,63,0.00,,,0.00,WeatherCatV1.24B11,2015-08-28 07:04:00,
2015-08-28 00:09:00,68.7,56.0,29.94,West,271,0.0,0.0,64,0.00,,,0.00,WeatherCatV1.24B11,2015-08-28 07:09:00,
2015-08-28 00:14:00,68.5,55.8,29.94,West,271,0.0,0.0,64,0.00,,,0.00,WeatherCatV1.24B11,2015-08-28 07:14:00,
2015-08-28 00:19:00,68.4,56.2,29.94,West,271,0.0,0.0,65,0.00,,,0.00,WeatherCatV1.24B11,2015-08-28 07:19:00,
2015-08-28 00:24:00,68.2,56.4,29.94,West,271,0.0,0.0,66,0.00,,,0.00,WeatherCatV1.24B11,2015-08-28 07:24:00,
2015-08-28 00:29:00,68.0,55.8,29.94,West,271,0.0,0.0,65,0.00,,,0.00,WeatherCatV1.24B11,2015-08-28 07:29:00,
2015-08-28 00:34:00,67.9,56.1,29.94,West,271,0.0,0.0,66,0.00,,,0.00,WeatherCatV1.24B11,2015-08-28 07:34:00,
2015-08-28 00:39:00,67.7,55.5,29.94,West,271,0.0,0.0,65,0.00,,,0.00,WeatherCatV1.24B11,2015-08-28 07:39:00,
2015-08-28 00:44:00,67.6,55.4,29.94,West,271,0.0,0.0,65,0.00,,,0.00,WeatherCatV1.24B11,2015-08-28 07:44:00,
2015-08-28 00:49:00,67.5,55.3,29.94,West,271,0.0,0.0,65,0.00,,,0.00,WeatherCatV1.24B11,2015-08-28 07:49:00,
2015-08-28 00:54:00,67.3,55.5,29.94,West,271,0.0,0.0,66,0.00,,,0.00,WeatherCatV1.24B11,2015-08-28 07:54:00,
2015-08-28 00:59:00,67.2,55.0,29.94,West,271,0.0,0.0,65,0.00,,,0.00,WeatherCatV1.24B11,2015-08-28 07:59:00,
2015-08-28 01:04:00,67.0,54.8,29.94,West,271,0.0,0.0,65,0.00,,,0.00,WeatherCatV1.24B11,2015-08-28 08:04:00,
2015-08-28 01:09:00,66.9,54.7,29.94,West,271,0.0,0.0,65,0.00,,,0.00,WeatherCatV1.24B11,2015-08-28 08:09:00,
2015-08-28 01:14:00,66.7,54.5,29.94,West,271,0.0,0.0,65,0.00,,,0.00,WeatherCatV1.24B11,2015-08-28 08:14:00,
2015-08-28 01:19:00,66.6,54.5,29.94,West,271,0.0,0.0,65,0.00,,,0.00,WeatherCatV1.24B11,2015-08-28 08:19:00,
2015-08-28 01:24:00,66.6,54.9,29.94,West,271,0.0,0.0,66,0.00,,,0.00,WeatherCatV1.24B11,2015-08-28 08:24:00,
2015-08-28 01:29:00,66.5,54.8,29.94,West,271,0.0,0.0,66,0.00,,,0.00,WeatherCatV1.24B11,2015-08-28 08:29:00,
2015-08-28 01:34:00,66.4,54.7,29.94,West,271,0.0,0.0,66,0.00,,,0.00,WeatherCatV1.24B11,2015-08-28 08:34:00,
2015-08-28 01:39:00,66.3,55.0,29.94,West,271,0.0,0.0,67,0.00,,,0.00,WeatherCatV1.24B11,2015-08-28 08:39:00,
2015-08-28 01:44:00,66.2,54.9,29.94,West,271,0.0,0.0,67,0.00,,,0.00,WeatherCatV1.24B11,2015-08-28 08:44:00,
2015-08-28 01:49:00,66.1,55.2,29.94,West,271,0.0,0.0,68,0.00,,,0.00,WeatherCatV1.24B11,2015-08-28 08:49:00,
2015-08-28 01:54:00,65.9,54.6,29.93,West,271,0.0,0.0,67,0.00,,,0.00,WeatherCatV1.24B11,2015-08-28 08:54:00,
2015-08-28 01:59:00,65.8,54.5,29.93,West,271,0.0,0.0,67,0.00,,,0.00,WeatherCatV1.24B11,2015-08-28 08:59:00,
2015-08-28 02:04:00,65.7,54.8,29.93,West,271,0.0,0.0,68,0.00,,,0.00,WeatherCatV1.24B11,2015-08-28 09:04:00,
2015-08-28 02:09:00,65.6,55.2,29.93,West,271,0.0,0.0,69,0.00,,,0.00,WeatherCatV1.24B11,2015-08-28 09:09:00,
2015-08-28 02:14:00,65.6,55.2,29.93,West,271,0.0,0.0,69,0.00,,,0.00,WeatherCatV1.24B11,2015-08-28 09:14:00,
2015-08-28 02:19:00,65.5,55.0,29.93,West,271,0.0,0.0,69,0.00,,,0.00,WeatherCatV1.24B11,2015-08-28 09:19:00,
2015-08-28 02:24:00,65.4,55.0,29.93,West,271,0.0,0.0,69,0.00,,,0.00,WeatherCatV1.24B11,2015-08-28 09:24:00,
2015-08-28 02:29:00,65.2,54.4,29.93,West,271,0.0,0.0,68,0.00,,,0.00,WeatherCatV1.24B11,2015-08-28 09:29:00,
2015-08-28 02:34:00,65.1,54.7,29.93,West,271,0.0,0.0,69,0.00,,,0.00,WeatherCatV1.24B11,2015-08-28 09:34:00,
2015-08-28 02:39:00,65.0,54.6,29.93,West,271,0.0,0.0,69,0.00,,,0.00,WeatherCatV1.24B11,2015-08-28 09:39:00,
2015-08-28 02:44:00,64.9,54.5,29.93,West,271,0.0,0.0,69,0.00,,,0.00,WeatherCatV1.24B11,2015-08-28 09:44:00,
2015-08-28 02:49:00,64.8,54.4,29.93,West,271,0.0,0.0,69,0.00,,,0.00,WeatherCatV1.24B11,2015-08-28 09:49:00,
2015-08-28 02:54:00,64.7,54.7,29.93,West,271,0.0,0.0,70,0.00,,,0.00,WeatherCatV1.24B11,2015-08-28 09:54:00,
2015-08-28 02:59:00,64.7,54.7,29.92,West,271,0.0,0.0,70,0.00,,,0.00,WeatherCatV1.24B11,2015-08-28 09:59:00,
2015-08-28 03:04:00,64.7,54.7,29.93,West,271,0.0,0.0,70,0.00,,,0.00,WeatherCatV1.24B11,2015-08-28 10:04:00,
2015-08-28 03:09:00,64.7,54.7,29.93,West,271,0.0,0.0,70,0.00,,,0.00,WeatherCatV1.24B11,2015-08-28 10:09:00,
2015-08-28 03:14:00,64.6,54.6,29.92,West,271,0.0,0.0,70,0.00,,,0.00,WeatherCatV1.24B11,2015-08-28 10:14:00,
2015-08-28 03:20:00,64.5,54.5,29.92,West,271,0.0,0.0,70,0.00,,,0.00,WeatherCatV1.24B11,2015-08-28 10:20:00,
2015-08-28 03:25:00,64.4,54.4,29.93,West,271,0.0,0.0,70,0.00,,,0.00,WeatherCatV1.24B11,2015-08-28 10:25:00,
2015-08-28 03:30:00,64.3,54.7,29.92,West,271,0.0,0.0,71,0.00,,,0.00,WeatherCatV1.24B11,2015-08-28 10:30:00,
2015-08-28 03:35:00,64.2,54.6,29.92,West,271,0.0,0.0,71,0.00,,,0.00,WeatherCatV1.24B11,2015-08-28 10:35:00,
2015-08-28 03:40:00,64.3,54.7,29.92,West,271,0.0,0.0,71,0.00,,,0.00,WeatherCatV1.24B11,2015-08-28 10:40:00,
2015-08-28 03:45:00,64.2,54.6,29.92,West,271,0.0,0.0,71,0.00,,,0.00,WeatherCatV1.24B11,2015-08-28 10:45:00,
2015-08-28 03:50:00,64.2,54.6,29.92,West,271,0.0,0.0,71,0.00,,,0.00,WeatherCatV1.24B11,2015-08-28 10:50:00,
2015-08-28 03:55:00,64.2,54.6,29.91,West,271,0.0,0.0,71,0.00,,,0.00,WeatherCatV1.24B11,2015-08-28 10:55:00,
2015-08-28 04:00:00,64.1,54.5,29.91,West,271,0.0,0.0,71,0.00,,,0.00,WeatherCatV1.24B11,2015-08-28 11:00:00,
2015-08-28 04:05:00,63.9,54.3,29.91,West,271,0.0,0.0,71,0.00,,,0.00,WeatherCatV1.24B11,2015-08-28 11:05:00,
2015-08-28 04:10:00,63.8,54.2,29.91,West,271,0.0,0.0,71,0.00,,,0.00,WeatherCatV1.24B11,2015-08-28 11:10:00,
2015-08-28 04:15:00,63.7,54.1,29.91,West,271,0.0,0.0,71,0.00,,,0.00,WeatherCatV1.24B11,2015-08-28 11:15:00,
2015-08-28 04:20:00,63.6,54.0,29.91,West,271,0.0,0.0,71,0.00,,,0.00,WeatherCatV1.24B11,2015-08-28 11:20:00,
2015-08-28 04:25:00,63.5,53.9,29.91,West,271,0.0,0.0,71,0.00,,,0.00,WeatherCatV1.24B11,2015-08-28 11:25:00,
2015-08-28 04:30:00,63.5,53.9,29.90,West,271,0.0,0.0,71,0.00,,,0.00,WeatherCatV1.24B11,2015-08-28 11:30:00,
2015-08-28 04:35:00,63.5,53.9,29.90,West,271,0.0,0.0,71,0.00,,,0.00,WeatherCatV1.24B11,2015-08-28 11:35:00,
2015-08-28 04:40:00,63.4,54.2,29.90,West,271,0.0,0.0,72,0.00,,,0.00,WeatherCatV1.24B11,2015-08-28 11:40:00,
2015-08-28 04:45:00,63.3,54.1,29.90,West,271,0.0,0.0,72,0.00,,,0.00,WeatherCatV1.24B11,2015-08-28 11:45:00,
2015-08-28 04:50:00,63.3,54.1,29.90,West,271,0.0,0.0,72,0.00,,,0.00,WeatherCatV1.24B11,2015-08-28 11:50:00,
2015-08-28 04:55:00,63.2,54.0,29.90,West,271,0.0,0.0,72,0.00,,,0.00,WeatherCatV1.24B11,2015-08-28 11:55:00,
2015-08-28 05:00:00,63.1,53.9,29.90,West,271,0.0,0.0,72,0.00,,,0.00,WeatherCatV1.24B11,2015-08-28 12:00:00,
2015-08-28 05:05:00,63.0,54.2,29.90,West,271,0.0,0.0,73,0.00,,,0.00,WeatherCatV1.24B11,2015-08-28 12:05:00,
2015-08-28 05:10:00,62.9,54.1,29.90,West,271,0.0,0.0,73,0.00,,,0.00,WeatherCatV1.24B11,2015-08-28 12:10:00,
2015-08-28 05:15:00,62.8,54.0,29.90,West,271,0.0,0.0,73,0.00,,,0.00,WeatherCatV1.24B11,2015-08-28 12:15:00,
2015-08-28 05:20:00,62.7,54.3,29.90,West,271,0.0,0.0,74,0.00,,,0.00,WeatherCatV1.24B11,2015-08-28 12:20:00,
2015-08-28 05:25:00,62.8,54.4,29.90,West,271,0.0,0.0,74,0.00,,,0.00,WeatherCatV1.24B11,2015-08-28 12:25:00,
2015-08-28 05:30:00,62.9,54.5,29.90,West,271,0.0,0.0,74,0.00,,,0.00,WeatherCatV1.24B11,2015-08-28 12:30:00,
2015-08-28 05:35:00,62.8,54.4,29.90,West,271,0.0,0.0,74,0.00,,,0.00,WeatherCatV1.24B11,2015-08-28 12:35:00,
2015-08-28 05:40:00,62.8,54.4,29.90,West,271,0.0,0.0,74,0.00,,,0.00,WeatherCatV1.24B11,2015-08-28 12:40:00,
2015-08-28 05:45:00,62.7,54.7,29.90,West,271,0.0,0.0,75,0.00,,,0.00,WeatherCatV1.24B11,2015-08-28 12:45:00,
2015-08-28 05:50:00,62.6,54.9,29.90,West,271,0.0,0.0,76,0.00,,,0.00,WeatherCatV1.24B11,2015-08-28 12:50:00,
2015-08-28 05:55:00,62.4,54.7,29.90,West,271,0.0,0.0,76,0.00,,,0.00,WeatherCatV1.24B11,2015-08-28 12:55:00,
2015-08-28 06:00:00,62.3,54.6,29.90,West,271,0.0,0.0,76,0.00,,,0.00,WeatherCatV1.24B11,2015-08-28 13:00:00,
2015-08-28 06:05:00,62.4,54.4,29.90,West,271,0.0,0.0,75,0.00,,,0.00,WeatherCatV1.24B11,2015-08-28 13:05:00,
2015-08-28 06:10:00,62.5,54.5,29.89,West,271,0.0,0.0,75,0.00,,,0.00,WeatherCatV1.24B11,2015-08-28 13:10:00,
2015-08-28 06:15:00,62.7,54.7,29.90,West,271,0.0,0.0,75,0.00,,,0.00,WeatherCatV1.24B11,2015-08-28 13:15:00,
2015-08-28 06:20:00,62.6,54.6,29.90,West,271,0.0,0.0,75,0.00,,,0.00,WeatherCatV1.24B11,2015-08-28 13:20:00,
2015-08-28 06:25:00,62.6,54.6,29.89,West,271,0.0,0.0,75,0.00,,,0.00,WeatherCatV1.24B11,2015-08-28 13:25:00,
2015-08-28 06:30:00,62.5,54.1,29.89,West,271,0.0,0.0,74,0.00,,,0.00,WeatherCatV1.24B11,2015-08-28 13:30:00,
2015-08-28 06:35:00,62.4,54.4,29.89,West,271,0.0,0.0,75,0.00,,,0.00,WeatherCatV1.24B11,2015-08-28 13:35:00,
2015-08-28 06:40:00,62.6,54.6,29.89,West,271,0.0,0.0,75,0.00,,,0.00,WeatherCatV1.24B11,2015-08-28 13:40:00,
2015-08-28 06:45:00,62.8,54.8,29.89,West,271,0.0,0.0,75,0.00,,,0.00,WeatherCatV1.24B11,2015-08-28 13:45:00,
2015-08-28 06:50:00,62.9,54.8,29.89,West,271,0.0,0.0,75,0.00,,,0.00,WeatherCatV1.24B11,2015-08-28 13:50:00,
2015-08-28 06:55:00,63.1,54.7,29.89,West,271,0.0,0.0,74,0.00,,,0.00,WeatherCatV1.24B11,2015-08-28 13:55:00,
2015-08-28 07:00:00,63.3,54.5,29.89,West,271,0.0,0.0,73,0.00,,,0.00,WeatherCatV1.24B11,2015-08-28 14:00:00,
2015-08-28 07:05:00,63.6,54.8,29.89,West,271,0.0,0.0,73,0.00,,,0.00,WeatherCatV1.24B11,2015-08-28 14:05:00,
2015-08-28 07:10:00,63.8,55.0,29.89,West,271,0.0,0.0,73,0.00,,,0.00,WeatherCatV1.24B11,2015-08-28 14:10:00,
2015-08-28 07:15:00,63.9,55.1,29.89,West,271,0.0,0.0,73,0.00,,,0.00,WeatherCatV1.24B11,2015-08-28 14:15:00,
2015-08-28 07:20:00,64.2,55.0,29.89,West,271,0.0,0.0,72,0.00,,,0.00,WeatherCatV1.24B11,2015-08-28 14:20:00,
2015-08-28 07:25:00,64.7,55.1,29.89,West,269,0.0,1.3,71,0.00,,,0.00,WeatherCatV1.24B11,2015-08-28 14:25:00,
2015-08-28 07:30:00,65.2,55.5,29.89,WSW,239,0.0,0.0,71,0.00,,,0.00,WeatherCatV1.24B11,2015-08-28 14:30:00,
2015-08-28 07:35:00,65.9,55.4,29.89,SW,227,0.0,0.0,69,0.00,,,0.00,WeatherCatV1.24B11,2015-08-28 14:35:00,
2015-08-28 07:40:00,66.6,55.7,29.89,SW,227,0.0,0.0,68,0.00,,,0.00,WeatherCatV1.24B11,2015-08-28 14:40:00,
2015-08-28 07:45:00,67.4,55.6,29.89,SSW,205,0.0,0.0,66,0.00,,,0.00,WeatherCatV1.24B11,2015-08-28 14:45:00,
2015-08-28 07:50:00,68.0,55.8,29.89,SSW,205,0.0,0.0,65,0.00,,,0.00,WeatherCatV1.24B11,2015-08-28 14:50:00,
2015-08-28 07:55:00,68.6,55.9,29.90,SSW,205,0.0,0.0,64,0.00,,,0.00,WeatherCatV1.24B11,2015-08-28 14:55:00,
2015-08-28 08:00:00,69.3,55.7,29.90,SSW,205,0.0,0.0,62,0.00,,,0.00,WeatherCatV1.24B11,2015-08-28 15:00:00,
2015-08-28 08:05:00,69.9,56.7,29.89,SSW,205,0.0,0.0,63,0.00,,,0.00,WeatherCatV1.24B11,2015-08-28 15:05:00,
2015-08-28 08:10:00,70.5,56.4,29.89,SSW,205,0.0,0.0,61,0.00,,,0.00,WeatherCatV1.24B11,2015-08-28 15:10:00,
2015-08-28 08:15:00,70.9,55.8,29.89,SSW,205,0.0,0.0,59,0.00,,,0.00,WeatherCatV1.24B11,2015-08-28 15:15:00,
2015-08-28 08:20:00,71.5,56.4,29.89,SSW,205,0.0,0.0,59,0.00,,,0.00,WeatherCatV1.24B11,2015-08-28 15:20:00,
2015-08-28 08:25:00,72.0,56.4,29.89,SSW,205,0.0,0.0,58,0.00,,,0.00,WeatherCatV1.24B11,2015-08-28 15:25:00,
2015-08-28 08:30:00,72.8,56.7,29.89,SSW,205,0.0,0.0,57,0.00,,,0.00,WeatherCatV1.24B11,2015-08-28 15:30:00,
2015-08-28 08:35:00,73.6,56.9,29.89,SSW,205,0.0,0.0,56,0.00,,,0.00,WeatherCatV1.24B11,2015-08-28 15:35:00,
2015-08-28 08:40:00,74.2,57.0,29.89,SSW,205,0.0,0.0,55,0.00,,,0.00,WeatherCatV1.24B11,2015-08-28 15:40:00,
2015-08-28 08:45:00,74.8,57.0,29.89,South,179,0.0,0.0,54,0.00,,,0.00,WeatherCatV1.24B11,2015-08-28 15:45:00,
2015-08-28 08:50:00,75.4,57.1,29.89,South,179,0.0,0.0,53,0.00,,,0.00,WeatherCatV1.24B11,2015-08-28 15:50:00,
2015-08-28 08:55:00,75.9,57.0,29.89,South,179,0.0,0.0,52,0.00,,,0.00,WeatherCatV1.24B11,2015-08-28 15:55:00,
2015-08-28 09:00:00,76.4,56.9,29.89,South,179,0.0,0.0,51,0.00,,,0.00,WeatherCatV1.24B11,2015-08-28 16:00:00,
2015-08-28 09:05:00,76.8,56.7,29.89,South,179,0.0,0.0,50,0.00,,,0.00,WeatherCatV1.24B11,2015-08-28 16:05:00,
2015-08-28 09:10:00,77.4,56.7,29.89,South,179,0.0,0.0,49,0.00,,,0.00,WeatherCatV1.24B11,2015-08-28 16:10:00,
2015-08-28 09:15:00,78.0,56.7,29.89,South,173,0.0,0.0,48,0.00,,,0.00,WeatherCatV1.24B11,2015-08-28 16:15:00,
2015-08-28 09:20:00,78.7,56.8,29.88,SSE,165,0.0,0.0,47,0.00,,,0.00,WeatherCatV1.24B11,2015-08-28 16:20:00,
2015-08-28 09:25:00,79.7,57.7,29.88,SSE,159,0.0,0.0,47,0.00,,,0.00,WeatherCatV1.24B11,2015-08-28 16:25:00,
2015-08-28 09:30:00,80.8,56.8,29.88,SSE,159,0.0,0.0,44,0.00,,,0.00,WeatherCatV1.24B11,2015-08-28 16:30:00,
2015-08-28 09:35:00,82.1,57.4,29.88,SSE,159,0.0,0.0,43,0.00,,,0.00,WeatherCatV1.24B11,2015-08-28 16:35:00,
2015-08-28 09:40:00,83.2,57.0,29.88,SSE,159,0.0,0.0,41,0.00,,,0.00,WeatherCatV1.24B11,2015-08-28 16:40:00,
2015-08-28 09:45:00,84.2,57.2,29.88,SSE,159,0.0,0.0,40,0.00,,,0.00,WeatherCatV1.24B11,2015-08-28 16:45:00,
2015-08-28 09:50:00,85.0,57.2,29.89,SSE,159,0.0,0.0,39,0.00,,,0.00,WeatherCatV1.24B11,2015-08-28 16:50:00,
2015-08-28 09:55:00,85.4,57.6,29.89,SSE,159,0.0,0.0,39,0.00,,,0.00,WeatherCatV1.24B11,2015-08-28 16:55:00,
2015-08-28 10:00:00,85.8,57.9,29.88,SSE,159,0.0,0.0,39,0.00,,,0.00,WeatherCatV1.24B11,2015-08-28 17:00:00,
2015-08-28 10:05:00,86.3,56.9,29.88,SSE,158,0.0,0.0,37,0.00,,,0.00,WeatherCatV1.24B11,2015-08-28 17:05:00,
2015-08-28 10:10:00,86.4,57.8,29.89,SSE,160,0.0,0.0,38,0.00,,,0.00,WeatherCatV1.24B11,2015-08-28 17:10:00,
2015-08-28 10:15:00,86.5,56.3,29.89,SSE,160,0.0,0.0,36,0.00,,,0.00,WeatherCatV1.24B11,2015-08-28 17:15:00,
2015-08-28 10:20:00,86.4,57.0,29.89,WSW,237,0.0,1.3,37,0.00,,,0.00,WeatherCatV1.24B11,2015-08-28 17:20:00,
2015-08-28 10:25:00,86.5,57.1,29.89,WSW,255,0.0,1.3,37,0.00,,,0.00,WeatherCatV1.24B11,2015-08-28 17:25:00,
2015-08-28 10:30:00,86.6,57.2,29.89,West,260,0.0,0.0,37,0.00,,,0.00,WeatherCatV1.24B11,2015-08-28 17:30:00,
2015-08-28 10:35:00,86.7,57.3,29.89,West,281,0.0,1.3,37,0.00,,,0.00,WeatherCatV1.24B11,2015-08-28 17:35:00,
2015-08-28 10:40:00,86.8,57.4,29.89,WSW,238,0.0,0.0,37,0.00,,,0.00,WeatherCatV1.24B11,2015-08-28 17:40:00,
2015-08-28 10:45:00,87.0,58.3,29.89,NNW,341,0.0,2.6,38,0.00,,,0.00,WeatherCatV1.24B11,2015-08-28 17:45:00,
2015-08-28 10:50:00,87.1,58.4,29.89,West,272,0.0,0.0,38,0.00,,,0.00,WeatherCatV1.24B11,2015-08-28 17:50:00,
2015-08-28 10:55:00,87.2,59.2,29.89,NNW,339,0.0,1.3,39,0.00,,,0.00,WeatherCatV1.24B11,2015-08-28 17:55:00,
2015-08-28 11:00:00,87.1,59.8,29.89,WNW,283,0.0,2.6,40,0.00,,,0.00,WeatherCatV1.24B11,2015-08-28 18:00:00,
2015-08-28 11:05:00,87.0,60.4,29.88,West,279,0.0,0.0,41,0.00,,,0.00,WeatherCatV1.24B11,2015-08-28 18:05:00,
2015-08-28 11:10:00,87.1,60.5,29.88,West,274,0.0,1.3,41,0.00,,,0.00,WeatherCatV1.24B11,2015-08-28 18:10:00,
2015-08-28 11:15:00,87.2,60.6,29.88,WSW,252,1.3,1.3,41,0.00,,,0.00,WeatherCatV1.24B11,2015-08-28 18:15:00,
2015-08-28 11:20:00,87.3,60.7,29.88,NNW,334,1.3,1.3,41,0.00,,,0.00,WeatherCatV1.24B11,2015-08-28 18:20:00,
2015-08-28 11:25:00,87.4,60.1,29.88,NW,324,0.0,0.0,40,0.00,,,0.00,WeatherCatV1.24B11,2015-08-28 18:25:00,
2015-08-28 11:30:00,87.6,59.5,29.88,NW,321,0.0,0.0,39,0.00,,,0.00,WeatherCatV1.24B11,2015-08-28 18:30:00,
2015-08-28 11:35:00,87.9,60.5,29.88,NNW,348,0.0,1.3,40,0.00,,,0.00,WeatherCatV1.24B11,2015-08-28 18:35:00,
2015-08-28 11:40:00,88.4,59.5,29.88,NNW,345,0.0,0.0,38,0.00,,,0.00,WeatherCatV1.24B11,2015-08-28 18:40:00,
2015-08-28 11:45:00,88.8,59.1,29.87,North,4,0.0,1.3,37,0.00,,,0.00,WeatherCatV1.24B11,2015-08-28 18:45:00,
2015-08-28 11:50:00,89.2,59.5,29.87,WSW,239,0.0,1.3,37,0.00,,,0.00,WeatherCatV1.24B11,2015-08-28 18:50:00,
2015-08-28 11:55:00,89.6,59.1,29.87,WSW,258,0.0,1.3,36,0.00,,,0.00,WeatherCatV1.24B11,2015-08-28 18:55:00,
2015-08-28 12:00:00,90.2,58.8,29.87,WSW,254,0.0,1.3,35,0.00,,,0.00,WeatherCatV1.24B11,2015-08-28 19:00:00,
2015-08-28 12:05:00,90.7,58.4,29.86,WNW,295,0.0,1.3,34,0.00,,,0.00,WeatherCatV1.24B11,2015-08-28 19:05:00,
2015-08-28 12:10:00,91.1,57.9,29.86,NNW,329,0.0,1.3,33,0.00,,,0.00,WeatherCatV1.24B11,2015-08-28 19:10:00,
2015-08-28 12:15:00,91.6,58.4,29.86,WNW,282,0.0,1.3,33,0.00,,,0.00,WeatherCatV1.24B11,2015-08-28 19:15:00,
2015-08-28 12:20:00,92.0,57.9,29.86,WNW,283,0.0,1.3,32,0.00,,,0.00,WeatherCatV1.24B11,2015-08-28 19:20:00,
2015-08-28 12:25:00,92.3,58.1,29.86,East,101,0.0,2.6,32,0.00,,,0.00,WeatherCatV1.24B11,2015-08-28 19:25:00,
2015-08-28 12:30:00,92.7,57.6,29.86,NW,306,0.0,1.3,31,0.00,,,0.00,WeatherCatV1.24B11,2015-08-28 19:30:00,
2015-08-28 12:35:00,93.0,57.8,29.86,WSW,255,1.3,1.3,31,0.00,,,0.00,WeatherCatV1.24B11,2015-08-28 19:35:00,
2015-08-28 12:40:00,93.3,58.1,29.85,WSW,257,1.3,1.3,31,0.00,,,0.00,WeatherCatV1.24B11,2015-08-28 19:40:00,
2015-08-28 12:45:00,93.6,58.4,29.85,WNW,294,1.3,1.3,31,0.00,,,0.00,WeatherCatV1.24B11,2015-08-28 19:45:00,
2015-08-28 12:50:00,94.0,58.7,29.85,NW,305,0.0,0.0,31,0.00,,,0.00,WeatherCatV1.24B11,2015-08-28 19:50:00,
2015-08-28 12:55:00,94.3,58.0,29.85,WSW,252,2.6,2.6,30,0.00,,,0.00,WeatherCatV1.24B11,2015-08-28 19:55:00,
2015-08-28 13:00:00,94.6,58.3,29.85,WNW,287,1.3,1.3,30,0.00,,,0.00,WeatherCatV1.24B11,2015-08-28 20:00:00,
2015-08-28 13:05:00,95.1,58.7,29.85,WNW,283,0.0,2.6,30,0.00,,,0.00,WeatherCatV1.24B11,2015-08-28 20:05:00,
2015-08-28 13:10:00,95.1,58.7,29.85,North,2,2.6,3.9,30,0.00,,,0.00,WeatherCatV1.24B11,2015-08-28 20:10:00,
2015-08-28 13:15:00,95.0,58.7,29.84,NW,307,1.3,1.3,30,0.00,,,0.00,WeatherCatV1.24B11,2015-08-28 20:15:00,
2015-08-28 13:20:00,95.0,58.7,29.84,NNW,330,1.3,1.3,30,0.00,,,0.00,WeatherCatV1.24B11,2015-08-28 20:20:00,
2015-08-28 13:25:00,94.9,57.6,29.84,NNW,331,1.3,2.6,29,0.00,,,0.00,WeatherCatV1.24B11,2015-08-28 20:25:00,
2015-08-28 13:30:00,94.4,57.2,29.85,NE,43,0.0,5.2,29,0.00,,,0.00,WeatherCatV1.24B11,2015-08-28 20:30:00,
2015-08-28 13:35:00,94.2,57.0,29.85,SW,230,1.3,2.6,29,0.00,,,0.00,WeatherCatV1.24B11,2015-08-28 20:35:00,
2015-08-28 13:40:00,94.1,56.9,29.84,WNW,297,2.6,3.9,29,0.00,,,0.00,WeatherCatV1.24B11,2015-08-28 20:40:00,
2015-08-28 13:45:00,94.1,56.9,29.85,West,274,2.6,5.2,29,0.00,,,0.00,WeatherCatV1.24B11,2015-08-28 20:45:00,
2015-08-28 13:50:00,94.0,55.9,29.84,North,351,1.3,1.3,28,0.00,,,0.00,WeatherCatV1.24B11,2015-08-28 20:50:00,
2015-08-28 13:55:00,94.0,55.9,29.84,NNE,23,3.9,3.9,28,0.00,,,0.00,WeatherCatV1.24B11,2015-08-28 20:55:00,
2015-08-28 14:00:00,93.7,55.6,29.84,NNW,328,1.3,2.6,28,0.00,,,0.00,WeatherCatV1.24B11,2015-08-28 21:00:00,
2015-08-28 14:05:00,93.7,55.6,29.84,NW,326,2.6,3.9,28,0.00,,,0.00,WeatherCatV1.24B11,2015-08-28 21:05:00,
2015-08-28 14:10:00,93.8,55.7,29.84,NNW,347,1.3,2.6,28,0.00,,,0.00,WeatherCatV1.24B11,2015-08-28 21:10:00,
2015-08-28 14:15:00,93.9,56.8,29.84,North,356,2.6,3.9,29,0.00,,,0.00,WeatherCatV1.24B11,2015-08-28 21:15:00,
2015-08-28 14:20:00,93.9,57.7,29.84,NNW,329,0.0,3.9,30,0.00,,,0.00,WeatherCatV1.24B11,2015-08-28 21:20:00,
2015-08-28 14:25:00,94.1,57.9,29.84,NE,43,2.6,3.9,30,0.00,,,0.00,WeatherCatV1.24B11,2015-08-28 21:25:00,
2015-08-28 14:30:00,94.2,57.0,29.83,WNW,297,1.3,3.9,29,0.00,,,0.00,WeatherCatV1.24B11,2015-08-28 21:30:00,
2015-08-28 14:35:00,94.4,58.1,29.83,WNW,283,2.6,6.5,30,0.00,,,0.00,WeatherCatV1.24B11,2015-08-28 21:35:00,
2015-08-28 14:40:00,94.6,58.3,29.83,NW,308,1.3,5.2,30,0.00,,,0.00,WeatherCatV1.24B11,2015-08-28 21:40:00,
2015-08-28 14:45:00,94.9,59.5,29.83,West,269,1.3,3.9,31,0.00,,,0.00,WeatherCatV1.24B11,2015-08-28 21:45:00,
2015-08-28 14:50:00,95.2,58.8,29.82,West,274,0.0,2.6,30,0.00,,,0.00,WeatherCatV1.24B11,2015-08-28 21:50:00,
2015-08-28 14:55:00,95.5,59.1,29.82,NNE,23,1.3,3.9,30,0.00,,,0.00,WeatherCatV1.24B11,2015-08-28 21:55:00,
2015-08-28 15:00:00,96.0,58.5,29.82,WNW,294,1.3,2.6,29,0.00,,,0.00,WeatherCatV1.24B11,2015-08-28 22:00:00,
2015-08-28 15:05:00,95.6,57.2,29.82,NW,314,1.3,2.6,28,0.00,,,0.00,WeatherCatV1.24B11,2015-08-28 22:05:00,
2015-08-28 15:10:00,95.2,57.9,29.82,North,353,1.3,2.6,29,0.00,,,0.00,WeatherCatV1.24B11,2015-08-28 22:10:00,
2015-08-28 15:15:00,95.0,57.7,29.82,WNW,285,1.3,1.3,29,0.00,,,0.00,WeatherCatV1.24B11,2015-08-28 22:15:00,
2015-08-28 15:20:00,94.8,57.5,29.82,ENE,59,1.3,3.9,29,0.00,,,0.00,WeatherCatV1.24B11,2015-08-28 22:20:00,
2015-08-28 15:25:00,94.4,57.2,29.82,West,260,0.0,1.3,29,0.00,,,0.00,WeatherCatV1.24B11,2015-08-28 22:25:00,
2015-08-28 15:30:00,94.6,57.4,29.82,NW,317,1.3,2.6,29,0.00,,,0.00,WeatherCatV1.24B11,2015-08-28 22:30:00,
2015-08-28 15:35:00,94.7,57.4,29.81,WNW,299,1.3,2.6,29,0.00,,,0.00,WeatherCatV1.24B11,2015-08-28 22:35:00,
2015-08-28 15:40:00,94.5,57.3,29.81,NE,35,0.0,1.3,29,0.00,,,0.00,WeatherCatV1.24B11,2015-08-28 22:40:00,
2015-08-28 15:45:00,94.2,57.0,29.81,WNW,302,1.3,2.6,29,0.00,,,0.00,WeatherCatV1.24B11,2015-08-28 22:45:00,
2015-08-28 15:50:00,94.1,57.9,29.81,North,0,0.0,2.6,30,0.00,,,0.00,WeatherCatV1.24B11,2015-08-28 22:50:00,
2015-08-28 15:55:00,93.9,57.7,29.81,NNW,346,1.3,2.6,30,0.00,,,0.00,WeatherCatV1.24B11,2015-08-28 22:55:00,
2015-08-28 16:00:00,93.9,56.8,29.81,West,278,2.6,2.6,29,0.00,,,0.00,WeatherCatV1.24B11,2015-08-28 23:00:00,
2015-08-28 16:05:00,93.8,56.7,29.81,WNW,296,1.3,1.3,29,0.00,,,0.00,WeatherCatV1.24B11,2015-08-28 23:05:00,